User: anonymous   Login
Location: Unspecified
(0.0000°N, 0.0000°E)
Time: 21:50:34
(UTC+02:00)
Language:

Cosmos 1898 Rocket - Orbit

View from above orbital plane
View from above orbital plane
View from above satellite
View from above satellite

Ground track
Ground track

The orbit data is extracted from the following two-line orbital elements,

1 18586U 87098B   17262.93953469 +.00000010 +00000-0 +12476-4 0  9991
2 18586 074.0057 120.8601 0020667 157.7680 305.2465 14.36796541560660
Epoch (UTC): 19 September 2017 22:32:55
Eccentricity: 0.0020667
inclination: 74.0057°
perigee height: 754 km
apogee height: 784 km
right ascension of ascending node: 120.8601°
argument of perigee: 157.7680°
revolutions per day: 14.36796541
mean anomaly at epoch: 305.2465°
orbit number at epoch: 56066

The dashed part of the orbit path shows where the satellite is in the earth's shadow,  

DLR